RH
29 27 27 28 35 45 41 46 49 53 58 62 71 82 89 89 91 90 86 91 90 78 69 61 56 56 59 59 57 59 57 60
28 27 32 37 39 41 45 49 51 53 57 61 66 81 85 92 88 86 90 92 89 83 77 71 68 69 68 70 67 65 65 61
29 27 28 32 38 40 40 44 47 54 58 63 67 76 75 89 86 81 92 93 84 85 84 82 80 75 72 73 74 72 70 70
29 27 30 34 36 40 44 49 52 57 62 63 70 77 80 83 82 80 77 79 81 81 86 91 88 82 81 78 73 68 68 69
26 27 30 33 36 38 42 49 54 60 65 68 73 76 82 84 80 72 72 71 75 76 78 82 80 78 72 68 67 65 67 70
28 27 26 28 28 30 36 45 51 59 63 65 68 70 72 66 66 62 60 62 68 69 72 67 63 64 63 64 62 60 63 64
27 27 28 27 28 31 35 41 47 54 57 55 55 53 50 47 44 45 47 49 50 52 59 56 55 54 53 52 48 51 54 56
28 30 30 32 33 34 36 40 40 36 35 34 32 35 35 34 35 38 37 38 39 39 39 37 41 44 46 47 46 47 49 44
30 31 32 31 33 37 37 34 32 28 28 32 34 36 39 40 39 38 36 37 35 38 38 39 39 40 42 45 48 51 54 58
34 32 31 30 33 35 37 37 36 37 36 34 34 33 36 43 41 39 40 38 37 36 35 35 35 35 36 35 34 34 37 41
36 37 34 34 34 37 36 38 42 40 35 35 35 35 36 37 36 37 38 40 37 36 38 37 38 35 36 36 36 36 37 38
39 39 39 37 34 38 38 35 35 36 38 36 35 33 35 32 32 32 31 31 30 33 38 37 35 35 34 33 32 32 35 38
38 39 42 39 34 38 42 40 38 38 36 37 31 30 30 29 28 29 31 33 33 35 36 34 33 32 31 32 32 32 35 37
42 43 43 39 36 39 40 42 37 34 34 33 30 30 30 32 32 32 35 38 40 40 42 39 32 29 29 30 32 32 35 36
43 45 45 44 42 40 40 28 25 24 24 29 31 32 35 38 39 42 44 45 45 42 41 40 38 34 31 31 33 33 35 35
43 46 51 49 43 39 32 28 26 28 31 34 36 37 42 47 53 53 55 57 49 48 49 47 45 38 35 35 34 31 33 36
49 49 52 52 46 38 30 31 31 33 36 37 40 45 50 56 67 62 64 64 53 53 48 46 40 39 39 38 38 37 37 42
54 55 54 51 40 34 37 36 37 38 41 45 49 52 56 56 55 56 59 49 47 46 45 43 40 37 42 38 36 38 42 47
61 57 52 45 41 41 40 39 38 43 46 47 50 51 51 51 49 48 44 40 39 45 50 48 41 42 42 39 40 45 52 56